Date,TemperatureHighF,TemperatureAvgF,TemperatureLowF,DewpointHighF,DewpointAvgF,DewpointLowF,HumidityHigh,HumidityAvg,HumidityLow,PressureMaxIn,PressureMinIn,WindSpeedMaxMPH,WindSpeedAvgMPH,GustSpeedMaxMPH,PrecipitationSumIn
2013-5-1,91.4,75.7,63.8,33.6,26.4,21.3,23,16,11,0.00,0.00,23,5,23,0.00
2013-5-2,71.9,56.9,46.2,33.7,26.5,18.6,47,32,15,0.00,0.00,34,13,34,0.10
2013-5-3,74.1,56.1,41.7,29.4,21.6,16.0,41,27,16,0.00,0.00,30,10,30,0.00
2013-5-4,87.2,69.1,56.8,38.0,26.0,15.8,25,20,15,0.00,0.00,23,6,23,0.00
2013-5-5,88.3,71.7,61.3,41.6,30.1,21.9,28,21,19,0.00,0.00,29,11,29,0.00
2013-5-6,83.4,71.3,62.7,39.7,33.5,27.4,37,26,17,0.00,0.00,25,7,25,0.00
2013-5-7,82.5,70.6,59.3,39.0,31.8,25.5,30,24,17,0.00,0.00,18,5,18,0.00
2013-5-8,80.4,68.8,58.8,34.3,29.5,24.6,33,24,16,0.00,0.00,21,6,21,0.00
2013-5-9,83.1,69.8,58.8,35.3,29.7,23.4,32,23,16,0.00,0.00,18,4,18,0.00
2013-5-10,80.7,65.1,55.9,44.7,35.8,28.0,60,35,22,0.00,0.00,39,8,39,0.00
2013-5-11,78.9,64.6,55.0,46.3,40.2,33.7,53,42,23,0.00,0.00,25,7,25,0.00
2013-5-12,82.2,69.0,58.8,42.9,37.8,32.7,44,33,22,0.00,0.00,16,4,16,0.00
2013-5-13,87.2,71.6,58.8,40.0,35.4,31.2,40,28,16,0.00,0.00,21,7,21,0.00
2013-5-14,91.0,74.2,63.6,46.2,39.5,34.9,40,30,16,0.00,0.00,13,3,13,0.00
2013-5-15,89.4,76.5,65.3,45.5,36.3,32.5,41,24,16,0.00,0.00,23,6,23,0.00
2013-5-16,94.4,79.1,67.2,39.0,33.4,29.9,26,20,13,0.00,0.00,28,6,28,0.00
2013-5-17,97.1,80.9,69.4,41.3,32.3,25.3,21,17,14,0.00,0.00,17,4,17,0.00
2013-5-18,90.3,77.1,66.0,38.7,29.7,24.8,23,18,11,0.00,0.00,26,6,26,0.00
2013-5-19,90.5,74.9,62.4,35.3,29.4,24.5,26,19,13,0.00,0.00,25,6,25,0.00
2013-5-20,90.1,75.1,62.7,36.8,31.2,26.4,28,21,13,0.00,0.00,23,7,23,0.00
2013-5-21,90.6,74.4,61.5,36.2,29.9,23.2,29,20,13,0.00,0.00,22,4,22,0.00
2013-5-22,94.2,79.9,67.2,37.7,29.2,23.9,22,16,11,0.00,0.00,14,3,14,0.00
2013-5-23,95.1,81.4,70.8,47.6,35.0,25.9,42,20,14,0.00,0.00,33,5,33,0.00
2013-5-24,99.3,80.9,66.5,49.5,44.7,40.1,48,30,17,0.00,0.00,25,6,25,0.00
2013-5-25,99.5,82.7,69.6,53.7,44.2,29.5,52,30,12,0.00,0.00,25,6,25,0.00
2013-5-26,95.1,81.5,68.5,44.3,32.3,21.7,25,17,12,0.00,0.00,21,3,21,0.00
2013-5-27,94.1,80.3,69.0,35.2,26.6,20.6,18,14,11,0.00,0.00,12,4,12,0.00
2013-5-28,94.6,80.3,68.1,36.6,26.8,20.7,19,14,10,0.00,0.00,24,4,24,0.00
2013-5-29,87.6,76.4,66.0,37.4,31.6,19.6,27,20,12,0.00,0.00,25,7,25,0.00
2013-5-30,94.2,78.6,66.0,46.5,37.7,30.9,30,23,15,0.00,0.00,23,4,23,0.00
2013-5-31,98.4,81.8,68.3,45.6,38.0,30.5,29,21,15,0.00,0.00,21,5,21,0.00